Flag for U.S.A. Weather past 2 weeks in Wilmington, North Carolina, U.S.A.

Now
74 °F

Clear.


Feels Like: 73 °F
Forecast: 72 / 90 °F
Wind: No wind

Location: New Hanover International Airport

Current Time: Sep 4, 2015 at 12:18:12 AM

Latest Report: Sep 3, 2015 at 10:53 PM


Visibility: 10 mi

Pressure: 29.90 "Hg

Humidity: 88%

Dew point: 70 °F

Location of WilmingtonLocation

Historic Weather in Wilmington — Graph

°F

Wilmington temperature yesterday

Maximum temperature yesterday: 89 °F (at 12:53 PM)
Minimum temperature yesterday: 73 °F (at 5:53 AM)
Average temperature yesterday: 79 °F

Past Weeks' High & Low Weather Summary

 TemperatureHumidityPressure
High93 °F (Sep 2, 2:53 PM)97% (Aug 20, 6:53 AM)30.19 "Hg (Aug 20, 6:53 AM)
Low66 °F (Aug 29, 6:53 AM)36% (Aug 23, 4:53 PM)29.86 "Hg (Aug 25, 5:53 PM)
Average78 °F79%30.01 "Hg
* Reported Aug 19 10:53 PM — Sep 3 10:53 PM, Wilmington, Weather by CustomWeather, © 2015

Note: Actual official high and low records may vary slightly from our data, if they occured in-between our weather recording intervals... More about our weather records

Advertising

Wilmington weather history for previous 24 hours

 ConditionsComfort  
Time TempWeatherWind HumidityBarometerVisibility
10:53 PM
Thu, Sep 3
74 °FClear.No wind88%29.90 "Hg10 mi
9:53 PM73 °FClear.No wind90%29.91 "Hg10 mi
8:53 PM75 °FClear.3 mph85%29.89 "Hg10 mi
7:53 PM76 °FSunny.5 mph80%29.88 "Hg10 mi
6:53 PM78 °FSunny.6 mph74%29.87 "Hg10 mi
5:53 PM77 °FSunny.6 mph79%29.88 "Hg10 mi
4:53 PM78 °FSunny.7 mph76%29.89 "Hg10 mi
4:00 PM80 °FSunny.6 mph74%29.89 "Hg10 mi
2:53 PM85 °FThundershowers. Scattered clouds.8 mph63%29.90 "Hg10 mi
1:53 PM89 °FBroken clouds.6 mph61%29.91 "Hg10 mi
12:53 PM89 °FSunny.7 mph57%29.93 "Hg10 mi
11:53 AM86 °FSunny.3 mph67%29.95 "Hg10 mi
10:53 AM82 °FLight rain. Overcast.6 mph77%29.95 "Hg10 mi
9:53 AM82 °FPartly sunny.5 mph72%29.94 "Hg10 mi
8:53 AM80 °FPassing clouds.6 mph76%29.93 "Hg10 mi
7:53 AM75 °FScattered clouds.6 mph85%29.91 "Hg10 mi
6:53 AM73 °FClear.No wind84%29.93 "Hg10 mi
5:53 AM73 °FClear.3 mph88%29.94 "Hg10 mi
4:53 AM75 °FPassing clouds.8 mph90%29.95 "Hg10 mi
3:53 AM75 °FPassing clouds.6 mph94%29.95 "Hg10 mi
2:53 AM77 °FClear.3 mph88%29.94 "Hg10 mi
1:53 AM78 °FClear.7 mph84%29.95 "Hg10 mi
12:53 AM77 °FClear.3 mph90%29.97 "Hg10 mi
Weather by CustomWeather, © 2015

See weather overviewHow to use our weather pages